Weather WX

World > North America > United States > Missouri

Duncans Bridge, Missouri Regional Weather

Lat: 39.58N, Lon: 92.26W
Wx Zone: MOZ026
Warning FLW WEATHER ALERT - SEVERE THUNDERSTORM WATCH (More Info. Click Here) Warning
Feedback

Duncans Bridge, MO Regional Weather

Expires:201906160300;;137413
ASUS43 KLSX 160207
RWRMO 

WEATHER SUMMARY FOR MISSOURI
NATIONAL WEATHER SERVICE SPRINGFIELD MO
900 PM CDT SAT JUN 15 2019

NOTE: "FAIR" INDICATES FEW OR NO CLOUDS BELOW 12,000 FEET WITH NO
       SIGNIFICANT WEATHER AND/OR OBSTRUCTIONS TO VISIBILITY.
       CURRENT SKY AND/OR WEATHER CONDITIONS ARE NOT AVAILABLE FOR
       CHILLICOTHE AND FARMINGTON.


MOZ001>031-035>038-043-044-053-054-160300-
...NORTHERN AND WESTERN MISSOURI...
  
CITY           SKY/WX    TMP DP  RH WIND       PRES   REMARKS
KANSAS CTY INT TSTM      78  69  73 N12       29.74S                  
KANSAS C DTWN  CLEAR     81  71  71 SW9       29.73S                  
LEE'S SUMMIT   PTCLDY    80  68  66 SW12      29.78R                  
ST JOSEPH      PTCLDY    77  65  66 CALM      29.77R                  
CHILLICOTHE      N/A     72  68  87 CALM      29.75R                  
KIRKSVILLE     TSTM      71  67  87 W10G21    29.75R FOG              
     
$$

SKY/WX - Weather  TMP - Temperature  DP - Dew Point  RH - Relative Humidity
WIND - Wind Direction/Speed PRES - Barometric Pressure VSB - Visibility
WCI - Wind Chill Index E13G22 Wind - East Wind 13 mph/Gusts of 22 mph